Location: Maccacari
(45.1333°N, 11.1333°E)
Time: 12:11:26
(UTC+00:00)

SR - Pass Details

Date: 24 June 2021
Orbit: 577 x 878 km, 66.7° (Epoch: 24 July)

Event Time Altitude Azimuth Distance (km) Brightness Sun altitude
Rises 23:32:19 0° 325° (NW) 3,274 ? -21.4°
Reaches altitude 10° 23:34:51 10° 322° (NW) 2,294 ? -21.4°
Maximum altitude 23:40:00 61° 243° (WSW) 802 ? -21.3°
Enters shadow 23:40:50 52° 198° (SSW) 867 ? -21.3°
